Year,Month,Day,Hour,Minute,Value (Times are PST for temperature in C)
2019,04,04,00,00,8.70
2019,04,04,00,01,8.70
2019,04,04,00,02,8.70
2019,04,04,00,03,8.70
2019,04,04,00,04,8.70
2019,04,04,00,05,8.70
2019,04,04,00,06,8.70
2019,04,04,00,07,8.70
2019,04,04,00,08,8.70
2019,04,04,00,09,8.70
2019,04,04,00,10,8.70
2019,04,04,00,11,8.70
2019,04,04,00,12,8.70
2019,04,04,00,13,8.70
2019,04,04,00,14,8.70
2019,04,04,00,15,8.70
2019,04,04,00,16,8.70
2019,04,04,00,17,8.70
2019,04,04,00,18,8.70
2019,04,04,00,19,8.70
2019,04,04,00,20,8.70
2019,04,04,00,21,8.70
2019,04,04,00,22,8.70
2019,04,04,00,23,8.70
2019,04,04,00,24,8.70
2019,04,04,00,25,8.70
2019,04,04,00,26,8.70
2019,04,04,00,27,8.70
2019,04,04,00,28,8.70
2019,04,04,00,29,8.70
2019,04,04,00,30,8.70
2019,04,04,00,31,8.70
2019,04,04,00,32,8.70
2019,04,04,00,33,8.60
2019,04,04,00,34,8.60
2019,04,04,00,35,8.60
2019,04,04,00,36,8.60
2019,04,04,00,37,8.60
2019,04,04,00,38,8.60
2019,04,04,00,39,8.60
2019,04,04,00,40,8.60
2019,04,04,00,41,8.60
2019,04,04,00,42,8.60
2019,04,04,00,43,8.50
2019,04,04,00,44,8.50
2019,04,04,00,45,8.50
2019,04,04,00,46,8.50
2019,04,04,00,47,8.50
2019,04,04,00,48,8.50
2019,04,04,00,49,8.50
2019,04,04,00,50,8.50
2019,04,04,00,51,8.50
2019,04,04,00,52,8.50
2019,04,04,00,53,8.60
2019,04,04,00,54,8.60
2019,04,04,00,55,8.60
2019,04,04,00,56,8.60
2019,04,04,00,57,8.60
2019,04,04,00,58,8.60
2019,04,04,00,59,8.60
2019,04,04,01,00,8.60
2019,04,04,01,01,8.50
2019,04,04,01,02,8.50
2019,04,04,01,03,8.50
2019,04,04,01,04,8.50
2019,04,04,01,05,8.50
2019,04,04,01,06,8.50
2019,04,04,01,07,8.50
2019,04,04,01,08,8.50
2019,04,04,01,09,8.50
2019,04,04,01,10,8.50
2019,04,04,01,11,8.40
2019,04,04,01,12,8.40
2019,04,04,01,13,8.40
2019,04,04,01,14,8.40
2019,04,04,01,15,8.40
2019,04,04,01,16,8.40
2019,04,04,01,17,8.40
2019,04,04,01,18,8.40
2019,04,04,01,19,8.30
2019,04,04,01,20,8.30
2019,04,04,01,21,8.30
2019,04,04,01,22,8.30
2019,04,04,01,23,8.30
2019,04,04,01,24,8.30
2019,04,04,01,25,8.30
2019,04,04,01,26,8.30
2019,04,04,01,27,8.30
2019,04,04,01,28,8.30
2019,04,04,01,29,8.30
2019,04,04,01,30,8.30
2019,04,04,01,31,8.30
2019,04,04,01,32,8.30
2019,04,04,01,33,8.30
2019,04,04,01,34,8.30
2019,04,04,01,35,8.30
2019,04,04,01,36,8.30
2019,04,04,01,37,8.30
2019,04,04,01,38,8.30
2019,04,04,01,39,8.30
2019,04,04,01,40,8.30
2019,04,04,01,41,8.30
2019,04,04,01,42,8.30
2019,04,04,01,43,8.30
2019,04,04,01,44,8.30
2019,04,04,01,45,8.30
2019,04,04,01,46,8.30
2019,04,04,01,47,8.30
2019,04,04,01,48,8.30
2019,04,04,01,49,8.20
2019,04,04,01,50,8.20
2019,04,04,01,51,8.20
2019,04,04,01,52,8.20
2019,04,04,01,53,8.20
2019,04,04,01,54,8.20
2019,04,04,01,55,8.20
2019,04,04,01,56,8.20
2019,04,04,01,57,8.20
2019,04,04,01,58,8.20
2019,04,04,01,59,8.20
2019,04,04,02,00,8.20
2019,04,04,02,01,8.20
2019,04,04,02,02,8.10
2019,04,04,02,03,8.10
2019,04,04,02,04,8.10
2019,04,04,02,05,8.10
2019,04,04,02,06,8.10
2019,04,04,02,07,8.10
2019,04,04,02,08,8.20
2019,04,04,02,09,8.20
2019,04,04,02,10,8.20
2019,04,04,02,11,8.20
2019,04,04,02,12,8.20
2019,04,04,02,13,8.20
2019,04,04,02,14,8.20
2019,04,04,02,15,8.20
2019,04,04,02,16,8.20
2019,04,04,02,17,8.20
2019,04,04,02,18,8.20
2019,04,04,02,19,8.20
2019,04,04,02,20,8.20
2019,04,04,02,21,8.20
2019,04,04,02,22,8.20
2019,04,04,02,23,8.20
2019,04,04,02,24,8.20
2019,04,04,02,25,8.20
2019,04,04,02,26,8.20
2019,04,04,02,27,8.20
2019,04,04,02,28,8.20
2019,04,04,02,29,8.20
2019,04,04,02,30,8.20
2019,04,04,02,31,8.20
2019,04,04,02,32,8.20
2019,04,04,02,33,8.20
2019,04,04,02,34,8.20
2019,04,04,02,35,8.20
2019,04,04,02,36,8.20
2019,04,04,02,37,8.20
2019,04,04,02,38,8.20
2019,04,04,02,39,8.20
2019,04,04,02,40,8.20
2019,04,04,02,41,8.20
2019,04,04,02,42,8.20
2019,04,04,02,43,8.20
2019,04,04,02,44,8.20
2019,04,04,02,45,8.20
2019,04,04,02,46,8.20
2019,04,04,02,47,8.20
2019,04,04,02,48,8.20
2019,04,04,02,49,8.20
2019,04,04,02,50,8.20
2019,04,04,02,51,8.20
2019,04,04,02,52,8.20
2019,04,04,02,53,8.20
2019,04,04,02,54,8.20
2019,04,04,02,55,8.20
2019,04,04,02,56,8.20
2019,04,04,02,57,8.20
2019,04,04,02,58,8.20
2019,04,04,02,59,8.20
2019,04,04,03,00,8.10
2019,04,04,03,01,8.10
2019,04,04,03,02,8.10
2019,04,04,03,03,8.10
2019,04,04,03,04,8.10
2019,04,04,03,05,8.10
2019,04,04,03,06,8.10
2019,04,04,03,07,8.10
2019,04,04,03,08,8.10
2019,04,04,03,09,8.10
2019,04,04,03,10,8.00
2019,04,04,03,11,8.00
2019,04,04,03,12,8.00
2019,04,04,03,13,8.00
2019,04,04,03,14,8.00
2019,04,04,03,15,8.00
2019,04,04,03,16,8.00
2019,04,04,03,17,8.00
2019,04,04,03,18,8.00
2019,04,04,03,19,8.00
2019,04,04,03,20,7.90
2019,04,04,03,21,8.00
2019,04,04,03,22,7.90
2019,04,04,03,23,7.90
2019,04,04,03,24,7.90
2019,04,04,03,25,7.90
2019,04,04,03,26,8.00
2019,04,04,03,27,7.90
2019,04,04,03,28,7.90
2019,04,04,03,29,7.90
2019,04,04,03,30,7.90
2019,04,04,03,31,7.90
2019,04,04,03,32,8.00
2019,04,04,03,33,7.90
2019,04,04,03,34,7.90
2019,04,04,03,35,7.90
2019,04,04,03,36,7.90
2019,04,04,03,37,7.90
2019,04,04,03,38,7.90
2019,04,04,03,39,7.90
2019,04,04,03,40,7.90
2019,04,04,03,41,7.90
2019,04,04,03,42,7.90
2019,04,04,03,43,7.90
2019,04,04,03,44,7.90
2019,04,04,03,45,7.90
2019,04,04,03,46,7.90
2019,04,04,03,47,7.90
2019,04,04,03,48,7.90
2019,04,04,03,49,7.90
2019,04,04,03,50,7.90
2019,04,04,03,51,7.90
2019,04,04,03,52,7.90
2019,04,04,03,53,7.90
2019,04,04,03,54,7.90
2019,04,04,03,55,7.90
2019,04,04,03,56,7.90
2019,04,04,03,57,7.90
2019,04,04,03,58,7.90
2019,04,04,03,59,7.90
2019,04,04,04,00,7.90
2019,04,04,04,01,7.90
2019,04,04,04,02,7.90
2019,04,04,04,03,7.90
2019,04,04,04,04,7.90
2019,04,04,04,05,7.90
2019,04,04,04,06,7.80
2019,04,04,04,07,7.80
2019,04,04,04,08,7.80
2019,04,04,04,09,7.80
2019,04,04,04,10,7.80
2019,04,04,04,11,7.80
2019,04,04,04,12,7.80
2019,04,04,04,13,7.80
2019,04,04,04,14,7.80
2019,04,04,04,15,7.80
2019,04,04,04,16,7.80
2019,04,04,04,17,7.80
2019,04,04,04,18,7.80
2019,04,04,04,19,7.80
2019,04,04,04,20,7.80
2019,04,04,04,21,7.80
2019,04,04,04,22,7.80
2019,04,04,04,23,7.80
2019,04,04,04,24,7.80
2019,04,04,04,25,7.80
2019,04,04,04,26,7.80
2019,04,04,04,27,7.80
2019,04,04,04,28,7.80
2019,04,04,04,29,7.80
2019,04,04,04,30,7.80
2019,04,04,04,31,7.80
2019,04,04,04,32,7.80
2019,04,04,04,33,7.80
2019,04,04,04,34,7.80
2019,04,04,04,35,7.80
2019,04,04,04,36,7.80
2019,04,04,04,37,7.80
2019,04,04,04,38,7.80
2019,04,04,04,39,7.80
2019,04,04,04,40,7.80
2019,04,04,04,41,7.80
2019,04,04,04,42,7.80
2019,04,04,04,43,7.80
2019,04,04,04,44,7.80
2019,04,04,04,45,7.80
2019,04,04,04,46,7.80
2019,04,04,04,47,7.80
2019,04,04,04,48,7.80
2019,04,04,04,49,7.80
2019,04,04,04,50,7.70
2019,04,04,04,51,7.70
2019,04,04,04,52,7.70
2019,04,04,04,53,7.70
2019,04,04,04,54,7.70
2019,04,04,04,55,7.70
2019,04,04,04,56,7.70
2019,04,04,04,57,7.70
2019,04,04,04,58,7.70
2019,04,04,04,59,7.70
2019,04,04,05,00,7.70
2019,04,04,05,01,7.70
2019,04,04,05,02,7.70
2019,04,04,05,03,7.70
2019,04,04,05,04,7.70
2019,04,04,05,05,7.70
2019,04,04,05,06,7.70
2019,04,04,05,07,7.70
2019,04,04,05,08,7.70
2019,04,04,05,09,7.70
2019,04,04,05,10,7.70
2019,04,04,05,11,7.70
2019,04,04,05,12,7.70
2019,04,04,05,13,7.70
2019,04,04,05,14,7.70
2019,04,04,05,15,7.60
2019,04,04,05,16,7.60
2019,04,04,05,17,7.60
2019,04,04,05,18,7.60
2019,04,04,05,19,7.60
2019,04,04,05,20,7.60
2019,04,04,05,21,7.60
2019,04,04,05,22,7.60
2019,04,04,05,23,7.60
2019,04,04,05,24,7.60
2019,04,04,05,25,7.60
2019,04,04,05,26,7.60
2019,04,04,05,27,7.60
2019,04,04,05,28,7.50
2019,04,04,05,29,7.50
2019,04,04,05,30,7.50
2019,04,04,05,31,7.50
2019,04,04,05,32,7.50
2019,04,04,05,33,7.50
2019,04,04,05,34,7.50
2019,04,04,05,35,7.50
2019,04,04,05,36,7.40
2019,04,04,05,37,7.40
2019,04,04,05,38,7.40
2019,04,04,05,39,7.40
2019,04,04,05,40,7.40
2019,04,04,05,41,7.40
2019,04,04,05,42,7.40
2019,04,04,05,43,7.40
2019,04,04,05,44,7.40
2019,04,04,05,45,7.40
2019,04,04,05,46,7.40
2019,04,04,05,47,7.40
2019,04,04,05,48,7.40
2019,04,04,05,49,7.40
2019,04,04,05,50,7.40
2019,04,04,05,51,7.30
2019,04,04,05,52,7.30
2019,04,04,05,53,7.30
2019,04,04,05,54,7.30
2019,04,04,05,55,7.30
2019,04,04,05,56,7.30
2019,04,04,05,57,7.30
2019,04,04,05,58,7.30
2019,04,04,05,59,7.30
2019,04,04,06,00,7.30
2019,04,04,06,01,7.20
2019,04,04,06,02,7.20
2019,04,04,06,03,7.20
2019,04,04,06,04,7.20
2019,04,04,06,05,7.20
2019,04,04,06,06,7.20
2019,04,04,06,07,7.20
2019,04,04,06,08,7.20
2019,04,04,06,09,7.20
2019,04,04,06,10,7.20
2019,04,04,06,11,7.20
2019,04,04,06,12,7.20
2019,04,04,06,13,7.20
2019,04,04,06,14,7.20
2019,04,04,06,15,7.10
2019,04,04,06,16,7.10
2019,04,04,06,17,7.10
2019,04,04,06,18,7.10
2019,04,04,06,19,7.00
2019,04,04,06,20,7.00
2019,04,04,06,21,7.00
2019,04,04,06,22,7.00
2019,04,04,06,23,7.00
2019,04,04,06,24,6.90
2019,04,04,06,25,6.90
2019,04,04,06,26,6.90
2019,04,04,06,27,6.90
2019,04,04,06,28,6.90
2019,04,04,06,29,6.90
2019,04,04,06,30,6.90
2019,04,04,06,31,6.90
2019,04,04,06,32,6.90
2019,04,04,06,33,6.90
2019,04,04,06,34,6.90
2019,04,04,06,35,7.00
2019,04,04,06,36,7.00
2019,04,04,06,37,7.00
2019,04,04,06,38,7.00
2019,04,04,06,39,7.00
2019,04,04,06,40,7.00
2019,04,04,06,41,7.00
2019,04,04,06,42,7.00
2019,04,04,06,43,7.00
2019,04,04,06,44,7.00
2019,04,04,06,45,7.00
2019,04,04,06,46,7.00
2019,04,04,06,47,7.00
2019,04,04,06,48,7.00
2019,04,04,06,49,7.00
2019,04,04,06,50,7.00
2019,04,04,06,51,7.00
2019,04,04,06,52,7.00
2019,04,04,06,53,7.00
2019,04,04,06,54,7.00
2019,04,04,06,55,7.00
2019,04,04,06,56,7.00
2019,04,04,06,57,7.00
2019,04,04,06,58,6.90
2019,04,04,06,59,6.90
2019,04,04,07,00,6.90
2019,04,04,07,01,6.90
2019,04,04,07,02,6.90
2019,04,04,07,03,6.90
2019,04,04,07,04,6.90
2019,04,04,07,05,6.90
2019,04,04,07,06,6.90
2019,04,04,07,07,6.90
2019,04,04,07,08,6.90
2019,04,04,07,09,6.80
2019,04,04,07,10,6.80
2019,04,04,07,11,6.80
2019,04,04,07,12,6.80
2019,04,04,07,13,6.80
2019,04,04,07,14,6.80
2019,04,04,07,15,6.80
2019,04,04,07,16,6.80
2019,04,04,07,17,6.80
2019,04,04,07,18,6.80
2019,04,04,07,19,6.80
2019,04,04,07,20,6.80
2019,04,04,07,21,6.80
2019,04,04,07,22,6.80
2019,04,04,07,23,6.80
2019,04,04,07,24,6.80
2019,04,04,07,25,6.80
2019,04,04,07,26,6.80
2019,04,04,07,27,6.80
2019,04,04,07,28,6.80
2019,04,04,07,29,6.80
2019,04,04,07,30,6.80
2019,04,04,07,31,6.80
2019,04,04,07,32,6.90
2019,04,04,07,33,6.90
2019,04,04,07,34,6.90
2019,04,04,07,35,6.90
2019,04,04,07,36,6.90
2019,04,04,07,37,6.90
2019,04,04,07,38,6.90
2019,04,04,07,39,6.90
2019,04,04,07,40,6.90
2019,04,04,07,41,6.90
2019,04,04,07,42,6.90
2019,04,04,07,43,6.90
2019,04,04,07,44,6.90
2019,04,04,07,45,6.90
2019,04,04,07,46,6.90
2019,04,04,07,47,7.00
2019,04,04,07,48,7.00
2019,04,04,07,49,7.00
2019,04,04,07,50,7.00
2019,04,04,07,51,7.00
2019,04,04,07,52,7.10
2019,04,04,07,53,7.10
2019,04,04,07,54,7.10
2019,04,04,07,55,7.10
2019,04,04,07,56,7.10
2019,04,04,07,57,7.20
2019,04,04,07,58,7.20
2019,04,04,07,59,7.20
2019,04,04,08,00,7.20
2019,04,04,08,01,7.20
2019,04,04,08,02,7.20
2019,04,04,08,03,7.20
2019,04,04,08,04,7.20
2019,04,04,08,05,7.20
2019,04,04,08,06,7.20
2019,04,04,08,07,7.20
2019,04,04,08,08,7.30
2019,04,04,08,09,7.30
2019,04,04,08,10,7.30
2019,04,04,08,11,7.30
2019,04,04,08,12,7.30
2019,04,04,08,13,7.40
2019,04,04,08,14,7.40
2019,04,04,08,15,7.40
2019,04,04,08,16,7.40
2019,04,04,08,17,7.40
2019,04,04,08,18,7.40
2019,04,04,08,19,7.50
2019,04,04,08,20,7.50
2019,04,04,08,21,7.50
2019,04,04,08,22,7.50
2019,04,04,08,23,7.50
2019,04,04,08,24,7.60
2019,04,04,08,25,7.60
2019,04,04,08,26,7.60
2019,04,04,08,27,7.60
2019,04,04,08,28,7.60
2019,04,04,08,29,7.60
2019,04,04,08,30,7.60
2019,04,04,08,31,7.70
2019,04,04,08,32,7.70
2019,04,04,08,33,7.70
2019,04,04,08,34,7.80
2019,04,04,08,35,7.80
2019,04,04,08,36,7.80
2019,04,04,08,37,7.90
2019,04,04,08,38,7.90
2019,04,04,08,39,7.90
2019,04,04,08,40,7.90
2019,04,04,08,41,7.90
2019,04,04,08,42,7.90
2019,04,04,08,43,7.90
2019,04,04,08,44,7.90
2019,04,04,08,45,8.00
2019,04,04,08,46,8.00
2019,04,04,08,47,8.00
2019,04,04,08,48,8.00
2019,04,04,08,49,8.00
2019,04,04,08,50,8.00
2019,04,04,08,51,8.00
2019,04,04,08,52,8.10
2019,04,04,08,53,8.10
2019,04,04,08,54,8.10
2019,04,04,08,55,8.10
2019,04,04,08,56,8.20
2019,04,04,08,57,8.20
2019,04,04,08,58,8.20
2019,04,04,08,59,8.20
2019,04,04,09,00,8.20
2019,04,04,09,01,8.30
2019,04,04,09,02,8.30
2019,04,04,09,03,8.30
2019,04,04,09,04,8.40
2019,04,04,09,05,8.40
2019,04,04,09,06,8.40
2019,04,04,09,07,8.40
2019,04,04,09,08,8.40
2019,04,04,09,09,8.50
2019,04,04,09,10,8.50
2019,04,04,09,11,8.60
2019,04,04,09,12,8.60
2019,04,04,09,13,8.60
2019,04,04,09,14,8.60
2019,04,04,09,15,8.70
2019,04,04,09,16,8.60
2019,04,04,09,17,8.60
2019,04,04,09,18,8.60
2019,04,04,09,19,8.60
2019,04,04,09,20,8.60
2019,04,04,09,21,8.60
2019,04,04,09,22,8.60
2019,04,04,09,23,8.60
2019,04,04,09,24,8.60
2019,04,04,09,25,8.60
2019,04,04,09,26,8.70
2019,04,04,09,27,8.70
2019,04,04,09,28,8.70
2019,04,04,09,29,8.70
2019,04,04,09,30,8.70
2019,04,04,09,31,8.80
2019,04,04,09,32,8.80
2019,04,04,09,33,8.90
2019,04,04,09,34,8.90
2019,04,04,09,35,9.00
2019,04,04,09,36,9.10
2019,04,04,09,37,9.10
2019,04,04,09,38,9.20
2019,04,04,09,39,9.30
2019,04,04,09,40,9.30
2019,04,04,09,41,9.40
2019,04,04,09,42,9.50
2019,04,04,09,43,9.60
2019,04,04,09,44,9.60
2019,04,04,09,45,9.70
2019,04,04,09,46,9.80
2019,04,04,09,47,9.90
2019,04,04,09,48,10.00
2019,04,04,09,49,10.00
2019,04,04,09,50,10.00
2019,04,04,09,51,10.10
2019,04,04,09,52,10.10
2019,04,04,09,53,10.10
2019,04,04,09,54,10.10
2019,04,04,09,55,10.20
2019,04,04,09,56,10.10
2019,04,04,09,57,10.10
2019,04,04,09,58,10.10
2019,04,04,09,59,10.10
2019,04,04,10,00,10.10
2019,04,04,10,01,10.10
2019,04,04,10,02,10.10
2019,04,04,10,03,10.10
2019,04,04,10,04,10.10
2019,04,04,10,05,10.10
2019,04,04,10,06,10.20
2019,04,04,10,07,10.20
2019,04,04,10,08,10.20
2019,04,04,10,09,10.30
2019,04,04,10,10,10.40
2019,04,04,10,11,10.50
2019,04,04,10,12,10.60
2019,04,04,10,13,10.60
2019,04,04,10,14,10.60
2019,04,04,10,15,10.60
2019,04,04,10,16,10.60
2019,04,04,10,17,10.60
2019,04,04,10,18,10.60
2019,04,04,10,19,10.70
2019,04,04,10,20,10.80
2019,04,04,10,21,10.80
2019,04,04,10,22,10.80
2019,04,04,10,23,10.80
2019,04,04,10,24,10.90
2019,04,04,10,25,10.90
2019,04,04,10,26,10.90
2019,04,04,10,27,10.90
2019,04,04,10,28,11.00
2019,04,04,10,29,11.00
2019,04,04,10,30,11.10
2019,04,04,10,31,11.20
2019,04,04,10,32,11.20
2019,04,04,10,33,11.30
2019,04,04,10,34,11.40
2019,04,04,10,35,11.50
2019,04,04,10,36,11.50
2019,04,04,10,37,11.50
2019,04,04,10,38,11.40
2019,04,04,10,39,11.40
2019,04,04,10,40,11.40
2019,04,04,10,41,11.50
2019,04,04,10,42,11.60
2019,04,04,10,43,11.70
2019,04,04,10,44,11.80
2019,04,04,10,45,11.80
2019,04,04,10,46,11.90
2019,04,04,10,47,12.00
2019,04,04,10,48,12.00
2019,04,04,10,49,12.10
2019,04,04,10,50,12.10
2019,04,04,10,51,12.10
2019,04,04,10,52,12.00
2019,04,04,10,53,11.90
2019,04,04,10,54,11.80
2019,04,04,10,55,11.80
2019,04,04,10,56,11.80
2019,04,04,10,57,11.80
2019,04,04,10,58,11.90
2019,04,04,10,59,12.00
2019,04,04,11,00,12.00
2019,04,04,11,01,12.00
2019,04,04,11,02,12.20
2019,04,04,11,03,12.20
2019,04,04,11,04,12.10
2019,04,04,11,05,12.20
2019,04,04,11,06,12.10
2019,04,04,11,07,12.00
2019,04,04,11,08,12.00
2019,04,04,11,09,12.00
2019,04,04,11,10,12.00
2019,04,04,11,11,12.10
2019,04,04,11,12,12.10
2019,04,04,11,13,12.20
2019,04,04,11,14,12.20
2019,04,04,11,15,12.30
2019,04,04,11,16,12.30
2019,04,04,11,17,12.30
2019,04,04,11,18,12.30
2019,04,04,11,19,12.40
2019,04,04,11,20,12.40
2019,04,04,11,21,12.30
2019,04,04,11,22,12.20
2019,04,04,11,23,12.30
2019,04,04,11,24,12.30
2019,04,04,11,25,12.20
2019,04,04,11,26,12.20
2019,04,04,11,27,12.10
2019,04,04,11,28,12.10
2019,04,04,11,29,12.20
2019,04,04,11,30,12.10
2019,04,04,11,31,12.10
2019,04,04,11,32,12.10
2019,04,04,11,33,12.10
2019,04,04,11,34,12.10
2019,04,04,11,35,12.10
2019,04,04,11,36,12.10
2019,04,04,11,37,12.10
2019,04,04,11,38,12.10
2019,04,04,11,39,12.20
2019,04,04,11,40,12.20
2019,04,04,11,41,12.20
2019,04,04,11,42,12.20
2019,04,04,11,43,12.20
2019,04,04,11,44,12.20
2019,04,04,11,45,12.20
2019,04,04,11,46,12.20
2019,04,04,11,47,12.10
2019,04,04,11,48,12.10
2019,04,04,11,49,12.10
2019,04,04,11,50,12.20
2019,04,04,11,51,12.20
2019,04,04,11,52,12.30
2019,04,04,11,53,12.40
2019,04,04,11,54,12.50
2019,04,04,11,55,12.60
2019,04,04,11,56,12.60
2019,04,04,11,57,12.50
2019,04,04,11,58,12.40
2019,04,04,11,59,12.40
2019,04,04,12,00,12.40
2019,04,04,12,01,12.40
2019,04,04,12,02,12.40
2019,04,04,12,03,12.50
2019,04,04,12,04,12.60
2019,04,04,12,05,12.70
2019,04,04,12,06,12.90
2019,04,04,12,07,13.00
2019,04,04,12,08,13.10
2019,04,04,12,09,13.10
2019,04,04,12,10,13.00
2019,04,04,12,11,12.90
2019,04,04,12,12,12.90
2019,04,04,12,13,12.80
2019,04,04,12,14,12.80
2019,04,04,12,15,12.80
2019,04,04,12,16,12.70
2019,04,04,12,17,12.70
2019,04,04,12,18,12.80
2019,04,04,12,19,12.80
2019,04,04,12,20,12.80
2019,04,04,12,21,12.80
2019,04,04,12,22,12.80
2019,04,04,12,23,12.80
2019,04,04,12,24,12.90
2019,04,04,12,25,12.90
2019,04,04,12,26,13.00
2019,04,04,12,27,13.10
2019,04,04,12,28,13.10
2019,04,04,12,29,13.00
2019,04,04,12,30,12.90
2019,04,04,12,31,12.90
2019,04,04,12,32,12.80
2019,04,04,12,33,12.80
2019,04,04,12,34,12.90
2019,04,04,12,35,12.90
2019,04,04,12,36,12.90
2019,04,04,12,37,12.90
2019,04,04,12,38,12.90
2019,04,04,12,39,13.30
2019,04,04,12,40,13.30
2019,04,04,12,41,13.20
2019,04,04,12,42,13.20
2019,04,04,12,43,13.20
2019,04,04,12,44,13.10
2019,04,04,12,45,13.10
2019,04,04,12,46,13.20
2019,04,04,12,47,13.20
2019,04,04,12,48,13.30
2019,04,04,12,49,13.30
2019,04,04,12,50,13.40
2019,04,04,12,51,13.40
2019,04,04,12,52,13.40
2019,04,04,12,53,13.50
2019,04,04,12,54,13.50
2019,04,04,12,55,13.60
2019,04,04,12,56,13.50
2019,04,04,12,57,13.50
2019,04,04,12,58,13.50
2019,04,04,12,59,13.60
2019,04,04,13,00,13.60
2019,04,04,13,01,13.50
2019,04,04,13,02,13.40
2019,04,04,13,03,13.40
2019,04,04,13,04,13.30
2019,04,04,13,05,13.30
2019,04,04,13,06,13.40
2019,04,04,13,07,13.30
2019,04,04,13,08,13.30
2019,04,04,13,09,13.30
2019,04,04,13,10,13.30
2019,04,04,13,11,13.40
2019,04,04,13,12,13.40
2019,04,04,13,13,13.50
2019,04,04,13,14,13.50
2019,04,04,13,15,13.60
2019,04,04,13,16,13.70
2019,04,04,13,17,13.80
2019,04,04,13,18,13.80
2019,04,04,13,19,14.00
2019,04,04,13,20,14.10
2019,04,04,13,21,14.10
2019,04,04,13,22,14.20
2019,04,04,13,23,14.10
2019,04,04,13,24,13.90
2019,04,04,13,25,13.80
2019,04,04,13,26,13.70
2019,04,04,13,27,13.70
2019,04,04,13,28,13.70
2019,04,04,13,29,13.60
2019,04,04,13,30,13.60
2019,04,04,13,31,13.70
2019,04,04,13,32,13.70
2019,04,04,13,33,13.80
2019,04,04,13,34,13.80
2019,04,04,13,35,13.90
2019,04,04,13,36,14.00
2019,04,04,13,37,14.00
2019,04,04,13,38,14.00
2019,04,04,13,39,14.00
2019,04,04,13,40,14.10
2019,04,04,13,41,14.20
2019,04,04,13,42,14.30
2019,04,04,13,43,14.30
2019,04,04,13,44,14.30
2019,04,04,13,45,14.40
2019,04,04,13,46,14.40
2019,04,04,13,47,14.50
2019,04,04,13,48,14.60
2019,04,04,13,49,14.60
2019,04,04,13,50,14.70
2019,04,04,13,51,14.70
2019,04,04,13,52,14.70
2019,04,04,13,53,14.70
2019,04,04,13,54,14.60
2019,04,04,13,55,14.50
2019,04,04,13,56,14.50
2019,04,04,13,57,14.50
2019,04,04,13,58,14.50
2019,04,04,13,59,14.50
2019,04,04,14,00,14.40
2019,04,04,14,01,14.30
2019,04,04,14,02,14.20
2019,04,04,14,03,14.20
2019,04,04,14,04,14.10
2019,04,04,14,05,14.10
2019,04,04,14,06,14.20
2019,04,04,14,07,14.20
2019,04,04,14,08,14.30
2019,04,04,14,09,14.30
2019,04,04,14,10,14.30
2019,04,04,14,11,14.40
2019,04,04,14,12,14.70
2019,04,04,14,13,14.80
2019,04,04,14,14,15.00
2019,04,04,14,15,15.00
2019,04,04,14,16,15.00
2019,04,04,14,17,15.00
2019,04,04,14,18,15.00
2019,04,04,14,19,15.10
2019,04,04,14,20,15.00
2019,04,04,14,21,15.00
2019,04,04,14,22,15.00
2019,04,04,14,23,14.80
2019,04,04,14,24,14.60
2019,04,04,14,25,14.50
2019,04,04,14,26,14.40
2019,04,04,14,27,14.40
2019,04,04,14,28,14.40
2019,04,04,14,29,14.30
2019,04,04,14,30,14.30
2019,04,04,14,31,14.30
2019,04,04,14,32,14.30
2019,04,04,14,33,14.40
2019,04,04,14,34,14.50
2019,04,04,14,35,14.60
2019,04,04,14,36,14.60
2019,04,04,14,37,14.70
2019,04,04,14,38,14.80
2019,04,04,14,39,15.00
2019,04,04,14,40,15.00
2019,04,04,14,41,15.00
2019,04,04,14,42,15.00
2019,04,04,14,43,15.00
2019,04,04,14,44,15.00
2019,04,04,14,45,15.00
2019,04,04,14,46,15.00
2019,04,04,14,47,15.00
2019,04,04,14,48,15.00
2019,04,04,14,49,15.10
2019,04,04,14,50,15.20
2019,04,04,14,51,15.30
2019,04,04,14,52,15.40
2019,04,04,14,53,15.40
2019,04,04,14,54,15.50
2019,04,04,14,55,15.50
2019,04,04,14,56,15.50
2019,04,04,14,57,15.40
2019,04,04,14,58,15.30
2019,04,04,14,59,15.20
2019,04,04,15,00,15.20
2019,04,04,15,01,15.10
2019,04,04,15,02,15.00
2019,04,04,15,03,15.00
2019,04,04,15,04,15.00
2019,04,04,15,05,15.00
2019,04,04,15,06,15.00
2019,04,04,15,07,15.00
2019,04,04,15,08,15.00
2019,04,04,15,09,15.00
2019,04,04,15,10,15.00
2019,04,04,15,11,15.00
2019,04,04,15,12,15.00
2019,04,04,15,13,14.90
2019,04,04,15,14,14.90
2019,04,04,15,15,15.00
2019,04,04,15,16,15.00
2019,04,04,15,17,15.00
2019,04,04,15,18,15.00
2019,04,04,15,19,15.00
2019,04,04,15,20,15.00
2019,04,04,15,21,15.00
2019,04,04,15,22,15.00
2019,04,04,15,23,15.00
2019,04,04,15,24,15.00
2019,04,04,15,25,15.00
2019,04,04,15,26,15.00
2019,04,04,15,27,15.00
2019,04,04,15,28,15.00
2019,04,04,15,29,15.00
2019,04,04,15,30,15.00
2019,04,04,15,31,14.90
2019,04,04,15,32,14.80
2019,04,04,15,33,14.80
2019,04,04,15,34,14.80
2019,04,04,15,35,14.90
2019,04,04,15,36,15.00
2019,04,04,15,37,15.00
2019,04,04,15,38,15.00
2019,04,04,15,39,14.80
2019,04,04,15,40,14.70
2019,04,04,15,41,14.70
2019,04,04,15,42,14.70
2019,04,04,15,43,14.70
2019,04,04,15,44,14.70
2019,04,04,15,45,14.70
2019,04,04,15,46,14.70
2019,04,04,15,47,14.80
2019,04,04,15,48,14.80
2019,04,04,15,49,15.00
2019,04,04,15,50,15.00
2019,04,04,15,51,15.00
2019,04,04,15,52,15.00
2019,04,04,15,53,15.00
2019,04,04,15,54,15.00
2019,04,04,15,55,15.00
2019,04,04,15,56,14.90
2019,04,04,15,57,14.80
2019,04,04,15,58,14.80
2019,04,04,15,59,14.80
2019,04,04,16,00,14.80
2019,04,04,16,01,14.80
2019,04,04,16,02,14.70
2019,04,04,16,03,14.60
2019,04,04,16,04,14.60
2019,04,04,16,05,14.50
2019,04,04,16,06,14.50
2019,04,04,16,07,14.50
2019,04,04,16,08,14.50
2019,04,04,16,09,14.60
2019,04,04,16,10,14.60
2019,04,04,16,11,14.60
2019,04,04,16,12,14.70
2019,04,04,16,13,14.70
2019,04,04,16,14,14.70
2019,04,04,16,15,14.70
2019,04,04,16,16,14.70
2019,04,04,16,17,14.70
2019,04,04,16,18,14.70
2019,04,04,16,19,14.70
2019,04,04,16,20,14.70
2019,04,04,16,21,14.80
2019,04,04,16,22,14.80
2019,04,04,16,23,14.70
2019,04,04,16,24,14.60
2019,04,04,16,25,14.50
2019,04,04,16,26,14.50
2019,04,04,16,27,14.40
2019,04,04,16,28,14.30
2019,04,04,16,29,14.30
2019,04,04,16,30,14.30
2019,04,04,16,31,14.30
2019,04,04,16,32,14.30
2019,04,04,16,33,14.30
2019,04,04,16,34,14.30
2019,04,04,16,35,14.40
2019,04,04,16,36,14.30
2019,04,04,16,37,14.30
2019,04,04,16,38,14.20
2019,04,04,16,39,14.20
2019,04,04,16,40,14.10
2019,04,04,16,41,14.10
2019,04,04,16,42,14.10
2019,04,04,16,43,14.10
2019,04,04,16,44,14.10
2019,04,04,16,45,14.20
2019,04,04,16,46,14.20
2019,04,04,16,47,14.20
2019,04,04,16,48,14.10
2019,04,04,16,49,14.20
2019,04,04,16,50,14.10
2019,04,04,16,51,14.10
2019,04,04,16,52,14.00
2019,04,04,16,53,14.00
2019,04,04,16,54,13.90
2019,04,04,16,55,13.90
2019,04,04,16,56,13.90
2019,04,04,16,57,13.90
2019,04,04,16,58,13.90
2019,04,04,16,59,13.90
2019,04,04,17,00,13.90
2019,04,04,17,01,13.90
2019,04,04,17,02,13.90
2019,04,04,17,03,13.90
2019,04,04,17,04,13.90
2019,04,04,17,05,14.00
2019,04,04,17,06,14.10
2019,04,04,17,07,14.10
2019,04,04,17,08,14.10
2019,04,04,17,09,14.10
2019,04,04,17,10,14.10
2019,04,04,17,11,14.10
2019,04,04,17,12,14.10
2019,04,04,17,13,14.10
2019,04,04,17,14,14.20
2019,04,04,17,15,14.20
2019,04,04,17,16,14.20
2019,04,04,17,17,14.20
2019,04,04,17,18,14.20
2019,04,04,17,19,14.20
2019,04,04,17,20,14.30
2019,04,04,17,21,14.30
2019,04,04,17,22,14.30
2019,04,04,17,23,14.30
2019,04,04,17,24,14.20
2019,04,04,17,25,14.20
2019,04,04,17,26,14.20
2019,04,04,17,27,14.10
2019,04,04,17,28,14.10
2019,04,04,17,29,14.10
2019,04,04,17,30,14.00
2019,04,04,17,31,14.00
2019,04,04,17,32,14.00
2019,04,04,17,33,13.90
2019,04,04,17,34,13.80
2019,04,04,17,35,13.80
2019,04,04,17,36,13.80
2019,04,04,17,37,13.80
2019,04,04,17,38,13.80
2019,04,04,17,39,13.80
2019,04,04,17,40,13.70
2019,04,04,17,41,13.70
2019,04,04,17,42,13.70
2019,04,04,17,43,13.70
2019,04,04,17,44,13.70
2019,04,04,17,45,13.70